Tracking 25198 objects as of 16-Jan-2022
HD Live streaming from Space Station
objects crossing your sky now

THOR ABLESTAR DEB

Track THOR ABLESTAR DEB now!
10-day predictions


NORAD ID: 406
Int'l Code: 1961-015EF
Perigee: 929.2 km
Apogee: 1,104.9 km
Inclination: 66.8 °
Period: 105.3 minutes
Semi major axis: 7388 km
RCS: 0.0536 m2 (small)
Launch date: June 29, 1961
Source: United States (US)
Launch site: AIR FORCE EASTERN TEST RANGE (AFETR)

Note: This is SATELLITE DEBRIS
aabbcc
Your satellite tracking list
Your tracking list is empty




NASA's NSSDC Master Catalog

Two Line Element Set (TLE):
1 00406U 61015EF  22015.90828568  .00000269  00000-0  38714-3 0  9992
2 00406  66.7773 189.2581 0118946  32.2109  87.5955 13.67129911   489
Source of the keplerian elements: AFSPC